EW6612 Weather Reports


time (UTC)temp
C
wind
direction
speed
KPH
gust
KPH
rain 1hr
cm
rain 24hr
cm
rain mn
cm
humidity
%
barometer
mb
20190421070504 13 43 0.0 6.4 0.00 0.03 0.00 79 1014.1
20190421065450 13 71 0.0 0.0 0.00 0.03 0.00 80 1014.1
20190421064528 12 71 0.0 4.8 0.00 0.03 0.00 81 1014.0
20190421063508 12 71 1.6 4.8 0.00 0.03 0.00 80 1014.0
20190421062451 12 71 0.0 3.2 0.00 0.03 0.00 79 1013.8
20190421061436 12 71 1.6 6.4 0.00 0.03 0.00 78 1013.7
20190421060512 12 100 1.6 3.2 0.00 0.03 0.00 77 1013.7
20190421055452 12 102 1.6 4.8 0.00 0.03 0.00 76 1013.6
20190421054434 12 69 1.6 6.4 0.00 0.03 0.00 75 1013.5
20190421053418 13 102 1.6 6.4 0.00 0.03 0.00 74 1013.5
20190421052458 13 142 3.2 14.5 0.00 0.03 0.00 73 1013.4
20190421051442 13 147 1.6 11.3 0.00 0.03 0.00 72 1013.5
20190421050425 13 119 3.2 14.5 0.00 0.03 0.00 71 1013.6
20190421045405 13 69 1.6 4.8 0.00 0.03 0.00 69 1013.5
20190421044444 14 107 6.4 14.5 0.00 0.03 0.00 68 1013.5
20190421043423 14 122 8.0 11.3 0.00 0.03 0.00 67 1013.5
20190421042411 14 130 9.7 17.7 0.00 0.03 0.00 67 1013.6
20190421041402 14 142 6.4 11.3 0.00 0.03 0.00 68 1013.6
20190421040432 14 139 8.0 14.5 0.00 0.03 0.00 67 1013.7
20190421035411 14 121 9.7 17.7 0.00 0.03 0.00 67 1013.6
20190421034400 15 146 11.3 17.7 0.00 0.03 0.00 65 1013.7
20190421033354 15 130 9.7 16.1 0.00 0.03 0.00 64 1013.7
20190421032423 15 121 9.7 16.1 0.00 0.03 0.00 63 1013.7
20190421031408 15 125 14.5 24.1 0.00 0.03 0.00 62 1013.8
20190421030354 15 148 12.9 19.3 0.00 0.03 0.00 61 1013.7
20190421025348 15 129 12.9 20.9 0.00 0.03 0.00 60 1013.7
20190421024415 16 132 14.5 24.1 0.00 0.03 0.00 60 1013.7
20190421023357 16 120 12.9 22.5 0.00 0.03 0.00 60 1013.7
20190421022345 15 136 12.9 24.1 0.00 0.03 0.00 62 1013.7
20190421021346 15 136 9.7 16.1 0.00 0.03 0.00 63 1013.8
20190421020404 16 121 8.0 19.3 0.00 0.03 0.00 63 1013.9
20190421015348 16 159 9.7 16.1 0.00 0.03 0.00 63 1013.9
20190421014342 16 136 12.9 25.7 0.00 0.03 0.00 63 1013.9
20190421013339 16 144 14.5 22.5 0.00 0.03 0.00 64 1014.1
20190421012356 16 139 14.5 20.9 0.00 0.03 0.00 65 1014.3
20190421011343 16 146 12.9 19.3 0.00 0.03 0.00 66 1014.3
20190421010336 16 130 12.9 19.3 0.00 0.03 0.00 69 1014.5
20190421005335 15 128 12.9 22.5 0.00 0.03 0.00 74 1014.6
20190421004347 15 145 6.4 14.5 0.00 0.03 0.00 77 1014.7
20190421003345 15 150 8.0 16.1 0.00 0.03 0.00 80 1014.7
20190421002405 14 130 11.3 16.1 0.00 0.03 0.00 87 1014.7
20190421001352 13 132 9.7 20.9 0.00 0.03 0.00 92 1014.6
20190421000333 12 137 1.6 4.8 0.00 0.03 0.00 91 1014.7
20190420235331 12 138 1.6 8.0 0.00 0.03 0.00 92 1014.7
20190420234318 12 216 0.0 3.2 0.00 0.03 0.00 91 1014.8
20190420233310 12 216 1.6 6.4 0.00 0.03 0.00 91 1014.7
20190420232311 12 285 0.0 1.6 0.00 0.03 0.00 91 1014.7
20190420231256 12 285 1.6 6.4 0.00 0.03 0.00 91 1014.7
20190420230251 13 292 4.8 12.9 0.00 0.03 0.00 92 1014.8
20190420225251 12 122 4.8 22.5 0.00 0.03 0.03 92 1015.2
20190420224301 13 307 0.0 0.0 0.00 0.03 0.03 91 1014.5
20190420223246 13 307 0.0 0.0 0.00 0.03 0.03 92 1014.7
20190420222232 12 307 0.0 0.0 0.00 0.03 0.03 92 1014.7
20190420221310 12 307 0.0 1.6 0.00 0.03 0.03 91 1014.8
20190420220216 12 307 0.0 0.0 0.00 0.03 0.03 91 1014.7
20190420215242 12 307 0.0 0.0 0.00 0.03 0.03 91 1014.8
20190420214223 12 307 0.0 0.0 0.00 0.03 0.03 90 1014.8
20190420213205 13 307 0.0 0.0 0.00 0.03 0.03 90 1014.9
20190420212150 13 307 0.0 0.0 0.00 0.03 0.03 90 1014.9
20190420211133 13 307 1.6 3.2 0.00 0.03 0.03 89 1014.9
20190420210211 13 307 1.6 3.2 0.00 0.03 0.03 89 1015.0
20190420205156 13 307 1.6 3.2 0.00 0.03 0.03 88 1015.1
20190420204137 13 307 0.0 4.8 0.00 0.03 0.03 87 1015.0
20190420203123 14 307 1.6 3.2 0.00 0.03 0.03 86 1015.0
20190420202105 14 307 1.6 3.2 0.00 0.03 0.03 85 1014.9
20190420201046 15 307 1.6 4.8 0.00 0.03 0.03 83 1014.9
20190420200125 15 307 3.2 11.3 0.00 0.03 0.03 82 1014.8
20190420195111 15 294 3.2 6.4 0.00 0.03 0.03 80 1014.7
20190420194049 16 304 1.6 4.8 0.00 0.03 0.03 77 1014.7
20190420193130 16 304 1.6 4.8 0.00 0.03 0.03 74 1014.7
20190420192113 17 308 3.2 6.4 0.00 0.03 0.03 73 1014.6
20190420191108 17 311 3.2 9.7 0.00 0.03 0.03 72 1014.6
20190420190033 17 240 4.8 9.7 0.00 0.03 0.03 71 1014.4
20190420185023 18 277 3.2 8.0 0.00 0.03 0.03 68 1014.5
20190420184107 19 327 6.4 14.5 0.00 0.03 0.03 66 1014.6
20190420183051 20 325 8.0 14.5 0.00 0.05 0.03 65 1014.6
20190420182036 20 323 8.0 16.1 0.00 0.05 0.03 64 1014.6
20190420181019 20 295 6.4 14.5 0.00 0.25 0.03 63 1014.5
20190420180059 21 306 6.4 12.9 0.00 0.28 0.03 62 1014.6
20190420175043 21 306 6.4 12.9 0.00 0.28 0.03 59 1014.6
20190420174023 22 320 4.8 8.0 0.00 0.28 0.03 58 1014.7
20190420173101 22 331 6.4 14.5 0.00 0.28 0.03 58 1014.6
20190420172046 22 327 8.0 16.1 0.00 0.28 0.03 56 1014.6
20190420171032 22 291 8.0 14.5 0.00 0.28 0.03 57 1014.7
20190420170013 23 315 9.7 17.7 0.00 0.28 0.03 54 1014.7
20190420165055 23 331 11.3 20.9 0.00 0.28 0.03 52 1014.7
20190420164040 23 303 9.7 16.1 0.00 0.28 0.03 50 1014.7
20190420163024 23 277 8.0 16.1 0.00 0.28 0.03 51 1014.6
20190420162006 23 320 11.3 17.7 0.00 0.28 0.03 51 1014.8
20190420161049 23 327 12.9 20.9 0.00 0.28 0.03 51 1014.8
20190420160033 23 325 9.7 19.3 0.00 0.28 0.03 50 1014.9
20190420155015 24 13 9.7 20.9 0.00 0.28 0.03 48 1014.9
20190420153959 24 330 11.3 20.9 0.00 0.28 0.03 49 1015.0
20190420153039 24 302 12.9 22.5 0.00 0.28 0.03 47 1015.0
20190420152021 24 11 14.5 25.7 0.03 0.28 0.03 47 1015.0
20190420151005 24 313 14.5 27.4 0.03 0.28 0.03 46 1015.2
20190420145947 23 324 12.9 22.5 0.03 0.28 0.03 47 1015.3
20190420145029 23 307 14.5 25.7 0.03 0.28 0.03 48 1015.5
20190420144012 23 5 16.1 25.7 0.03 0.28 0.03 47 1015.7
20190420142953 23 335 16.1 29.0 0.03 0.28 0.03 48 1015.8
20190420141941 23 328 14.5 24.1 0.00 0.30 0.00 44 1016.0
20190420141019 23 344 11.3 20.9 0.00 0.30 0.00 46 1016.1
20190420135937 23 294 12.9 27.4 0.00 0.30 0.00 49 1016.2
20190420134946 23 286 11.3 27.4 0.00 0.30 0.00 49 1016.3
20190420133937 23 316 14.5 25.7 0.00 0.30 0.00 50 1016.3
20190420133009 23 302 12.9 24.1 0.00 0.30 0.00 51 1016.3
20190420131952 23 291 14.5 25.7 0.00 0.30 0.00 54 1016.4
20190420131026 23 325 12.9 22.5 0.00 0.30 0.00 54 1016.3
20190420130010 23 317 8.0 19.3 0.00 0.30 0.00 56 1016.3
20190420124959 23 16 9.7 19.3 0.00 0.30 0.00 52 1016.2
20190420123943 23 334 9.7 19.3 0.00 0.30 0.00 54 1016.4
20190420122939 23 355 9.7 17.7 0.00 0.30 0.00 55 1016.6
20190420121959 22 331 8.0 20.9 0.00 0.30 0.00 59 1016.6
20190420120937 22 313 11.3 20.9 0.00 0.30 0.00 59 1017.0
20190420115936 22 298 8.0 17.7 0.00 0.30 0.00 61 1017.3
20190420114935 22 348 6.4 16.1 0.00 0.30 0.00 62 1017.4
20190420113935 21 331 6.4 16.1 0.00 0.30 0.00 63 1017.5
20190420112936 21 339 9.7 19.3 0.00 0.30 0.00 63 1017.6
20190420111933 21 333 8.0 17.7 0.00 0.30 0.00 65 1017.7
20190420111003 21 355 9.7 17.7 0.00 0.30 0.00 66 1017.7
20190420105931 20 298 8.0 14.5 0.00 0.30 0.00 67 1017.9
20190420105021 20 338 11.3 17.7 0.00 0.30 0.00 68 1017.9
20190420103923 20 314 11.3 19.3 0.00 0.30 0.00 67 1018.1
20190420102922 20 326 11.3 17.7 0.00 0.30 0.00 68 1018.1
20190420101921 20 355 6.4 14.5 0.00 0.30 0.00 69 1018.2
20190420101009 20 319 4.8 12.9 0.00 0.30 0.00 69 1018.0
20190420095915 19 350 3.2 8.0 0.00 0.33 0.00 73 1017.8
20190420094939 18 350 3.2 9.7 0.00 0.33 0.00 71 1017.7
20190420093919 18 14 3.2 8.0 0.00 0.33 0.00 75 1017.9
20190420092959 18 111 1.6 6.4 0.00 0.33 0.00 76 1018.0
20190420090913 17 102 1.6 6.4 0.00 0.33 0.00 80 1017.8
20190420090009 16 115 3.2 11.3 0.00 0.33 0.00 87 1017.9
20190420084947 15 148 6.4 12.9 0.00 0.33 0.00 87 1018.0
20190420083932 15 130 4.8 11.3 0.00 0.33 0.00 91 1018.0
20190420082916 15 114 3.2 4.8 0.00 0.33 0.00 93 1018.0
20190420081956 14 115 0.0 4.8 0.00 0.33 0.00 94 1018.0
20190420080939 13 115 1.6 4.8 0.00 0.33 0.00 94 1018.0
20190420075922 13 115 3.2 6.4 0.00 0.33 0.00 94 1018.2
20190420074858 12 76 1.6 4.8 0.00 0.33 0.00 95 1018.2
20190420073944 12 76 1.6 3.2 0.00 0.33 0.00 95 1018.1
20190420072924 11 76 1.6 3.2 0.00 0.33 0.00 95 1018.4
20190420071908 11 76 0.0 3.2 0.00 0.33 0.00 95 1018.5